Home   Weather   Poitiers   Past weeks

Flag for France Past Weather in Poitiers, Poitou-Charentes, France — Yesterday and Last 2 Weeks

Now
64 °F

Passing clouds.


Feels Like: 64 °F
Forecast: 45 / 58 °F
Wind: 12 mph from Southeast

Location: Poitiers Airport

Current Time: Apr 29, 2017 at 3:57:38 pm

Latest Report: Apr 29, 2017 at 3:30 pm


Visibility: N/A

Pressure: 29.86 "Hg

Humidity: 30%

Dew Point: 32 °F

Location of PoitiersLocation

Past Weather in Poitiers — Graph

°F

Poitiers Temperature Yesterday

Maximum temperature yesterday: 57 °F (at 6:00 pm)
Minimum temperature yesterday: 32 °F (at 7:30 am)
Average temperature yesterday: 46 °F

High & Low Weather Summary for the Past Weeks

 TemperatureHumidityPressure
High68 °F (Apr 22, 2:00 pm)100% (Apr 27, 6:00 am)30.54 "Hg (Apr 27, 6:00 am)
Low28 °F (Apr 20, 6:30 am)15% (Apr 21, 4:00 pm)29.83 "Hg (Apr 25, 7:30 am)
Average49 °F62%30.18 "Hg
* Reported Apr 14 2:00 pm — Apr 29 2:30 pm, Poitiers, Weather by CustomWeather, © 2017

Note: Actual official high and low records may vary slightly from our data, if they occured in-between our weather recording intervals... More about our weather records

Advertising

Poitiers Weather History for the Previous 24 Hours

Scroll right to see more
 ConditionsComfort  
Time TempWeatherWind HumidityBarometerVisibility
2:30 pm
Sat, Apr 29
63 °FPassing clouds.12 mph32%29.89 "HgN/A
2:00 pm63 °FPassing clouds.12 mph34%29.92 "HgN/A
1:30 pm63 °FPassing clouds.10 mph37%29.92 "HgN/A
12:30 pm59 °FPassing clouds.9 mph45%29.95 "HgN/A
12:00 pm59 °FPassing clouds.9 mph45%29.98 "HgN/A
11:30 am57 °FPassing clouds.8 mph51%29.98 "HgN/A
11:00 am55 °FPassing clouds.8 mph55%29.98 "HgN/A
10:30 am54 °FPassing clouds.8 mph67%30.01 "HgN/A
9:30 am50 °FPassing clouds.5 mph67%30.01 "HgN/A
9:00 am46 °FPassing clouds.5 mph76%30.01 "HgN/A
8:30 am39 °FSunny.No wind100%30.01 "Hg10 mi
8:00 am36 °FSunny.No wind93%30.01 "Hg10 mi
7:30 am32 °FSunny.No wind93%30.01 "Hg10 mi
7:00 am32 °FSunny.No wind93%30.01 "Hg10 mi
6:30 am36 °FClear.2 mph93%30.01 "Hg10 mi
6:00 am34 °FClear.No wind93%30.04 "Hg10 mi
5:30 am34 °FClear.No wind100%30.04 "Hg10 mi
5:00 am34 °FClear.No wind93%30.04 "Hg10 mi
4:30 am36 °FClear.No wind93%30.04 "Hg10 mi
4:00 am36 °FClear.1 mph93%30.07 "Hg10 mi
3:30 am36 °FClear.1 mph93%30.07 "Hg5 mi
3:00 am36 °FClear.2 mph100%30.07 "Hg10 mi
2:30 am37 °FClear.2 mph93%30.07 "Hg10 mi
2:00 am37 °FClear.2 mph87%30.07 "Hg10 mi
1:30 am37 °FClear.2 mph93%30.07 "Hg10 mi
1:00 am37 °FClear.2 mph93%30.07 "Hg10 mi
12:30 am41 °FClear.No wind87%30.09 "Hg10 mi
12:00 am43 °FClear.No wind81%30.09 "Hg10 mi
11:30 pm
Fri, Apr 28
45 °FClear.1 mph81%30.09 "Hg10 mi
11:00 pm46 °FClear.No wind76%30.09 "Hg10 mi
10:30 pm46 °FClear.2 mph76%30.09 "Hg10 mi
10:00 pm50 °FClear.1 mph67%30.07 "Hg10 mi
9:30 pm50 °FClear.2 mph67%30.07 "Hg10 mi
9:00 pm52 °FSunny.2 mph62%30.07 "Hg10 mi
8:30 pm54 °FSunny.2 mph63%30.07 "Hg10 mi
8:00 pm54 °FSunny.2 mph58%30.07 "Hg10 mi
7:30 pm54 °FPassing clouds.7 mph58%30.07 "HgN/A
7:00 pm55 °FMostly cloudy.7 mph51%30.07 "HgN/A
6:30 pm55 °FPartly sunny.6 mph51%30.07 "HgN/A
6:00 pm57 °FPassing clouds.5 mph44%30.07 "HgN/A
5:30 pm55 °FPartly sunny.3 mph51%30.07 "HgN/A
5:00 pm55 °FOvercast.8 mph51%30.07 "HgN/A
4:30 pm55 °FOvercast.7 mph47%30.07 "HgN/A
4:00 pm54 °FMore clouds than sun.9 mph58%30.09 "HgN/A
3:30 pm54 °FMostly cloudy.7 mph54%30.09 "HgN/A
3:00 pm55 °FMostly cloudy.9 mph51%30.09 "HgN/A
Weather by CustomWeather, © 2017

See weather overviewHow to use our weather pages